DW4252 Weather Reports


time (UTC)temp
C
wind
direction
speed
KPH
gust
KPH
rain 1hr
cm
rain 24hr
cm
rain mn
cm
humidity
%
barometer
mb
20260510113008 11 32 19.3 30.6 0.00 0.00 0.00 74 1016.1
20260510112007 11 21 19.3 27.4 0.00 0.00 0.00 74 1016.1
20260510111008 12 18 20.9 30.6 0.00 0.00 0.00 69 1016.2
20260510110008 12 22 20.9 30.6 0.00 0.00 0.00 69 1016.3
20260510105007 12 20 20.9 29.0 0.00 0.00 0.00 71 1016.4
20260510104007 11 23 17.7 29.0 0.00 0.00 0.00 74 1016.3
20260510103008 11 24 19.3 29.0 0.00 0.00 0.00 74 1016.6
20260510102008 11 21 19.3 33.8 0.00 0.00 0.00 75 1016.4
20260510101008 11 20 17.7 29.0 0.00 0.00 0.00 75 1016.6
20260510095007 11 28 16.1 27.4 0.00 0.00 0.00 76 1016.5
20260510094007 11 29 16.1 24.1 0.00 0.00 0.00 77 1016.5
20260510093008 11 26 17.7 27.4 0.00 0.00 0.00 77 1016.4
20260510092008 11 26 19.3 29.0 0.00 0.00 0.00 78 1016.4
20260510091007 11 23 17.7 29.0 0.00 0.00 0.00 80 1016.5
20260510083008 10 34 16.1 24.1 0.00 0.00 0.00 80 1016.6
20260510082008 10 32 14.5 22.5 0.00 0.00 0.00 80 1016.5
20260510081008 10 40 16.1 27.4 0.00 0.00 0.00 80 1016.5
20260510080008 10 44 14.5 24.1 0.00 0.00 0.00 79 1016.7
20260510075008 10 42 14.5 20.9 0.00 0.00 0.00 78 1016.5
20260510074008 10 42 14.5 22.5 0.00 0.00 0.00 78 1016.6
20260510073008 10 34 14.5 22.5 0.00 0.00 0.00 78 1016.7
20260510072008 10 34 14.5 24.1 0.00 0.00 0.00 78 1016.7
20260510065007 10 46 12.9 22.5 0.00 0.00 0.00 78 1016.6
20260510064008 10 46 14.5 20.9 0.00 0.00 0.00 79 1016.8
20260510062008 10 48 11.3 22.5 0.00 0.00 0.00 80 1016.8
20260510060008 10 50 12.9 19.3 0.00 0.00 0.00 81 1016.8
20260510055008 9 43 6.4 16.1 0.00 0.00 0.00 81 1016.8
20260510054008 9 42 9.7 17.7 0.00 0.00 0.00 81 1016.7
20260510053009 9 43 11.3 14.5 0.00 0.00 0.00 82 1016.6
20260510052007 9 43 14.5 22.5 0.00 0.00 0.00 82 1016.6
20260510051007 9 41 12.9 20.9 0.00 0.00 0.00 82 1016.6
20260510050008 9 40 14.5 27.4 0.00 0.00 0.00 82 1016.6
20260510045020 9 37 14.5 22.5 0.00 0.00 0.00 82 1016.6
20260510044011 9 36 16.1 25.7 0.00 0.00 0.00 82 1016.5
20260510043008 9 38 14.5 22.5 0.00 0.00 0.00 82 1016.5
20260510042007 10 44 14.5 25.7 0.00 0.00 0.00 82 1016.6
20260510041007 10 41 12.9 22.5 0.00 0.00 0.00 82 1016.6
20260510040007 10 37 14.5 25.7 0.00 0.00 0.00 82 1016.8
20260510034007 10 27 12.9 17.7 0.00 0.00 0.00 82 1016.7
20260510033007 10 29 11.3 17.7 0.00 0.00 0.00 82 1016.7
20260510032007 10 29 11.3 17.7 0.00 0.00 0.00 82 1016.9
20260510031007 10 32 11.3 16.1 0.00 0.00 0.00 81 1017.0
20260510025007 11 37 9.7 17.7 0.00 0.00 0.00 80 1016.9
20260510024007 11 44 11.3 20.9 0.00 0.00 0.00 80 1016.8
20260510023007 11 46 9.7 16.1 0.00 0.00 0.00 78 1016.9
20260510022007 11 49 9.7 17.7 0.00 0.00 0.00 78 1016.8
20260510021007 11 48 9.7 14.5 0.00 0.00 0.00 76 1016.8
20260510020007 11 44 9.7 16.1 0.00 0.00 0.00 75 1017.0
20260510015007 11 45 12.9 20.9 0.00 0.00 0.00 74 1016.8
20260510014007 11 46 11.3 22.5 0.00 0.00 0.00 73 1016.8
20260510013007 11 45 9.7 17.7 0.00 0.00 0.00 72 1016.8
20260510012007 11 54 9.7 17.7 0.00 0.00 0.00 70 1016.8
20260510010007 11 60 9.7 17.7 0.00 0.00 0.00 67 1016.9
20260510005008 11 64 12.9 22.5 0.00 0.00 0.00 66 1016.7
20260510004007 12 58 11.3 22.5 0.00 0.00 0.00 63 1016.7
20260510003007 12 57 14.5 19.3 0.00 0.00 0.00 62 1016.7
20260510002007 12 56 14.5 20.9 0.00 0.00 0.00 60 1016.9
20260509235002 12 68 14.5 25.7 0.00 0.00 0.00 58 1016.9
20260509234002 12 69 14.5 20.9 0.00 0.00 0.00 57 1016.9
20260509233002 12 70 11.3 17.7 0.00 0.00 0.00 56 1017.1
20260509232002 12 66 14.5 20.9 0.00 0.00 0.00 55 1017.0
20260509231002 12 67 12.9 17.7 0.00 0.00 0.00 54 1017.0
20260509230009 12 63 9.7 14.5 0.00 0.00 0.00 54 1017.0
20260509221002 12 60 11.3 19.3 0.00 0.00 0.00 51 1017.0
20260509220002 12 63 9.7 17.7 0.00 0.00 0.00 50 1017.2
20260509215002 12 63 11.3 17.7 0.00 0.00 0.00 49 1017.0
20260509213002 12 60 9.7 17.7 0.00 0.00 0.00 48 1017.1
20260509212002 12 61 11.3 14.5 0.00 0.00 0.00 48 1017.0
20260509211002 12 63 11.3 17.7 0.00 0.00 0.00 49 1017.0
20260509210002 12 60 9.7 17.7 0.00 0.00 0.00 49 1017.1
20260509205002 12 68 9.7 14.5 0.00 0.00 0.00 50 1017.1
20260509204001 13 75 9.7 17.7 0.00 0.00 0.00 52 1016.8
20260509203002 13 71 6.4 11.3 0.00 0.00 0.00 53 1016.6
20260509202002 13 72 9.7 14.5 0.00 0.00 0.00 53 1016.6
20260509201002 13 65 12.9 17.7 0.00 0.00 0.00 52 1016.7
20260509195003 14 61 9.7 16.1 0.00 0.00 0.00 51 1016.6
20260509193003 15 58 8.0 16.1 0.00 0.00 0.00 50 1016.5
20260509192003 15 58 9.7 17.7 0.00 0.00 0.00 49 1016.6
20260509191003 15 54 12.9 20.9 0.00 0.00 0.00 48 1016.4
20260509185003 16 52 14.5 20.9 0.00 0.00 0.00 47 1016.4
20260509183003 16 57 14.5 25.7 0.00 0.00 0.00 47 1016.2
20260509182006 17 58 14.5 24.1 0.00 0.00 0.00 45 1016.3
20260509181003 17 53 19.3 24.1 0.00 0.00 0.00 44 1016.2
20260509180004 17 44 19.3 27.4 0.00 0.00 0.00 44 1016.2
20260509175003 17 38 14.5 24.1 0.00 0.00 0.00 45 1016.3
20260509174003 18 39 16.1 27.4 0.00 0.00 0.00 45 1016.2
20260509173003 18 36 17.7 27.4 0.00 0.00 0.00 45 1016.0
20260509171002 18 47 17.7 29.0 0.00 0.00 0.00 46 1015.7
20260509170004 19 51 16.1 25.7 0.00 0.00 0.00 45 1015.7
20260509165003 19 59 17.7 27.4 0.00 0.00 0.00 45 1015.8
20260509164003 20 58 17.7 27.4 0.00 0.00 0.00 45 1015.8
20260509163002 20 56 20.9 27.4 0.00 0.00 0.00 45 1015.7
20260509162002 20 56 19.3 29.0 0.00 0.00 0.00 44 1015.7
20260509161003 20 55 16.1 24.1 0.00 0.00 0.00 44 1015.5
20260509160003 20 61 17.7 27.4 0.00 0.00 0.00 44 1015.6
20260509154003 21 60 16.1 20.9 0.00 0.00 0.00 44 1015.6
20260509152003 21 48 16.1 25.7 0.00 0.00 0.00 44 1015.8
20260509151003 21 54 17.7 24.1 0.00 0.00 0.00 43 1015.9
20260509150004 21 57 16.1 24.1 0.00 0.00 0.00 44 1015.9
20260509145004 21 66 14.5 25.7 0.00 0.00 0.00 44 1016.2
20260509144003 21 65 11.3 25.7 0.00 0.00 0.00 43 1016.2
20260509143004 21 61 16.1 25.7 0.00 0.00 0.00 43 1016.0
20260509142003 21 63 19.3 25.7 0.00 0.00 0.00 43 1015.9
20260509141004 21 58 12.9 24.1 0.00 0.00 0.00 43 1015.8
20260509140005 21 66 17.7 27.4 0.00 0.00 0.00 40 1015.7
20260509135004 22 65 11.3 20.9 0.00 0.00 0.00 39 1015.5
20260509134003 21 64 16.1 29.0 0.00 0.00 0.00 42 1015.8
20260509133003 21 62 14.5 25.7 0.00 0.00 0.00 43 1015.8
20260509132003 21 49 16.1 22.5 0.00 0.00 0.00 43 1016.0
20260509125003 21 47 14.5 22.5 0.00 0.00 0.00 43 1016.0
20260509124004 21 54 16.1 25.7 0.00 0.00 0.00 44 1016.0
20260509123003 21 52 16.1 27.4 0.00 0.00 0.00 44 1016.2
20260509122004 21 58 20.9 29.0 0.00 0.00 0.00 44 1016.4
20260509121003 21 53 16.1 24.1 0.00 0.00 0.00 44 1016.6
20260509114004 21 55 17.7 27.4 0.00 0.00 0.00 45 1017.0